Location: Scenic Heights
(38.0166°N, 120.2566°W)
Time: 15:27:56
(UTC+00:00)

ARGOS - Pass Details

Date: 03 August 2024
Orbit: 818 x 834 km, 98.4° (Epoch: 09 September)

Event Time Altitude Azimuth Distance (km) Brightness Sun altitude
Rises 12:31:08 0° 17° (NNE) 3,376 7.1 -7.1°
Reaches altitude 10° 12:33:33 10° 22° (NNE) 2,436 6.4 -6.7°
Maximum altitude 12:38:51 56° 100° (E) 978 3.9 -5.7°
Drops below altitude 10° 12:44:05 10° 178° (S) 2,410 5.3 -4.8°
Sets 12:46:27 0° 183° (S) 3,336 6.0 -4.4°
